Mumbai, India

4:38 PM IST on February 26, 2017 (GMT +0530)
Chhatrapati Shivaji International

Weather History for VABB - October, 2013

Change the Weather History Date:

Tuesday, October 15, 2013

  Actual Average Record
Temperature  
Mean Temperature 82 °F -  
Max Temperature 86 °F 90 °F 100 °F (2003)
Min Temperature 78 °F 74 °F 70 °F (2016)
Cooling Degree Days 17    
Growing Degree Days 32 (Base 50)    
Moisture  
Dew Point 78 °F    
Average Humidity 86    
Maximum Humidity 94    
Minimum Humidity 70    
Precipitation  
Precipitation 0.79 in - - ()
Sea Level Pressure  
Sea Level Pressure 29.82 in    
Wind  
Wind Speed 4 mph ()    
Max Wind Speed 10 mph    
Max Gust Speed -    
Visibility 1.4 miles    
Events Rain    
Averages and records for this station are not official NWS values.
T = Trace of Precipitation, MM = Missing Value Source: Averaged Metar Reports

Daily Weather History Graph

Daily Weather History Graph

Search for Another Location

Airport or City:

Trip Planner

Search our weather history database for the weather conditions in past years. The results will help you decide how hot, cold, wet, or windy it might be!

Date:

Astronomy

Oct. 15, 2013 Rise Set
Actual Time 6:32 AM IST 6:15 PM IST
Civil Twilight 6:10 AM IST 6:37 PM IST
Nautical Twilight 5:45 AM IST 7:03 PM IST
Astronomical Twilight 5:19 AM IST 7:28 PM IST
Moon 3:39 PM IST (10/15) 2:56 AM IST (10/15)
Length of Visible Light 12h 27m
Length of Day
11h 42m
Waxing Gibbous, 84% of the Moon is Illuminated
Oct 15
Waxing Gibbous
Oct 19
Full
Oct 27
Last Quarter
Nov 3
New
Nov 10
First Quarter

Hourly Weather History & Observations

Time (IST) Temp. Heat Index Dew Point Humidity Pressure Visibility Wind Dir Wind Speed Gust Speed Precip Events Conditions
12:10 AM 82.4 °F 92.4 °F 78.8 °F 89% 29.83 in 1.6 mi East 3.5 mph - N/A   Haze
12:40 AM 82.4 °F 92.4 °F 78.8 °F 89% 29.80 in 1.6 mi East 3.5 mph - N/A   Haze
1:10 AM 82.4 °F 92.4 °F 78.8 °F 89% 29.80 in 1.6 mi Calm Calm - N/A   Haze
1:40 AM 80.6 °F 88.1 °F 78.8 °F 94% 29.80 in 1.6 mi ESE 4.6 mph - N/A   Haze
2:10 AM 80.6 °F 88.1 °F 78.8 °F 94% 29.80 in 1.6 mi ESE 6.9 mph - N/A   Haze
2:30 AM 80 °F - 78 °F 93% 29.79 in 1 mi Calm Calm - -   Haze
2:40 AM 80.6 °F 88.1 °F 78.8 °F 94% 29.77 in 1.6 mi ESE 6.9 mph - N/A   Haze
3:10 AM 80.6 °F 88.1 °F 78.8 °F 94% 29.77 in 1.6 mi ESE 4.6 mph - N/A   Haze
3:40 AM 80.6 °F 88.1 °F 78.8 °F 94% 29.77 in 1.6 mi East 3.5 mph - N/A   Haze
4:10 AM 80.6 °F 88.1 °F 78.8 °F 94% 29.77 in 1.6 mi East 4.6 mph - N/A   Haze
4:40 AM 80.6 °F 88.1 °F 78.8 °F 94% 29.80 in 1.6 mi NE 4.6 mph - N/A   Haze
5:10 AM 80.6 °F 88.1 °F 78.8 °F 94% 29.80 in 1.6 mi East 4.6 mph - N/A   Haze
5:30 AM 80 °F - 78 °F 90% 29.81 in 1 mi Calm Calm - -   Haze
5:40 AM 80.6 °F 88.1 °F 78.8 °F 94% 29.80 in 1.6 mi ENE 4.6 mph - N/A   Haze
6:10 AM 80.6 °F 88.1 °F 78.8 °F 94% 29.83 in 1.6 mi East 4.6 mph - N/A   Haze
6:40 AM 80.6 °F 88.1 °F 78.8 °F 94% 29.83 in 1.3 mi Calm Calm - N/A   Haze
7:10 AM 80.6 °F 88.1 °F 78.8 °F 94% 29.86 in 1.1 mi ESE 4.6 mph - N/A   Haze
7:40 AM 80.6 °F 88.1 °F 78.8 °F 94% 29.86 in 1.1 mi ESE 3.5 mph - N/A   Haze
8:10 AM 80.6 °F 88.1 °F 78.8 °F 94% 29.89 in 1.0 mi SE 3.5 mph - N/A   Haze
8:30 AM 82 °F - 78 °F 84% 29.88 in 1 mi Calm Calm - -   Haze
8:40 AM 82.4 °F 92.4 °F 78.8 °F 89% 29.89 in 1.0 mi SE 4.6 mph - N/A   Haze
9:10 AM 84.2 °F 96.1 °F 78.8 °F 84% 29.89 in 1.3 mi South 4.6 mph - N/A   Haze
9:40 AM 84.2 °F 96.1 °F 78.8 °F 84% 29.89 in 1.4 mi SW 4.6 mph - N/A   Haze
10:10 AM 84.2 °F 96.1 °F 78.8 °F 84% 29.89 in 1.4 mi WSW 5.8 mph - N/A   Haze
10:40 AM 84.2 °F 96.1 °F 78.8 °F 84% 29.89 in 1.1 mi SSW 8.1 mph - N/A Rain Light Rain
11:10 AM 78.8 °F - 73.4 °F 83% 29.89 in 0.6 mi WSW 5.8 mph - N/A Rain Heavy Rain
11:30 AM 79 °F - 76 °F 87% 29.88 in 1 mi SE 3.5 mph - - Rain Light Rain
12:10 PM 78.8 °F - 75.2 °F 89% 29.86 in 1.4 mi SE 5.8 mph - N/A   Haze
1:10 PM 82.4 °F 90.9 °F 77.0 °F 84% 29.83 in 1.6 mi Calm Calm - N/A   Haze
1:40 PM 84.2 °F 94.1 °F 77.0 °F 79% 29.80 in 1.6 mi WSW 10.4 mph - N/A   Haze
2:10 PM 84.2 °F 94.1 °F 77.0 °F 79% 29.80 in 1.6 mi NNW 8.1 mph - N/A   Haze
2:30 PM 82 °F - 76 °F 76% 29.79 in 1 mi Calm Calm - -   Haze
2:40 PM 82.4 °F 88.2 °F 73.4 °F 74% 29.80 in 1.4 mi North 4.6 mph - N/A   Haze
3:10 PM 84.2 °F 90.9 °F 73.4 °F 70% 29.77 in 1.4 mi NW 4.6 mph - N/A   Haze
3:40 PM 84.2 °F 92.3 °F 75.2 °F 74% 29.77 in 1.4 mi NW 8.1 mph - N/A   Haze
4:10 PM 84.2 °F 94.1 °F 77.0 °F 79% 29.77 in 1.4 mi WNW 9.2 mph - N/A   Haze
4:40 PM 86.0 °F 99.3 °F 78.8 °F 79% 29.77 in 1.6 mi WNW 6.9 mph - N/A   Haze
5:10 PM 86.0 °F 99.3 °F 78.8 °F 79% 29.77 in 1.6 mi WNW 8.1 mph - N/A   Haze
5:30 PM 85 °F - 79 °F 77% 29.79 in 1 mi SW 4.6 mph - -   Haze
5:40 PM 86.0 °F 99.3 °F 78.8 °F 79% 29.77 in 1.6 mi WNW 10.4 mph - N/A   Haze
6:10 PM 84.2 °F 96.1 °F 78.8 °F 84% 29.80 in 1.6 mi WNW 8.1 mph - N/A   Haze
6:40 PM 84.2 °F 96.1 °F 78.8 °F 84% 29.80 in 1.6 mi North 4.6 mph - N/A   Haze
7:10 PM 84.2 °F 96.1 °F 78.8 °F 84% 29.80 in 1.4 mi North 6.9 mph - N/A   Haze
7:40 PM 84.2 °F 96.1 °F 78.8 °F 84% 29.83 in 1.4 mi NNE 5.8 mph - N/A   Haze
8:10 PM 82.4 °F 90.9 °F 77.0 °F 84% 29.83 in 1.4 mi NNW 3.5 mph - N/A   Haze
8:30 PM 82 °F - 78 °F 83% 29.85 in 1 mi Calm Calm - -   Haze
8:40 PM 84.2 °F 96.1 °F 78.8 °F 84% 29.83 in 1.4 mi NE 5.8 mph - N/A   Haze
9:10 PM 82.4 °F 92.4 °F 78.8 °F 89% 29.86 in 1.4 mi NE 8.1 mph - N/A   Haze
9:40 PM 82.4 °F 90.9 °F 77.0 °F 84% 29.86 in 1.6 mi ESE 4.6 mph - N/A   Haze
10:10 PM 82.4 °F 90.9 °F 77.0 °F 84% 29.86 in 1.6 mi East 6.9 mph - N/A   Haze
10:40 PM 82.4 °F 90.9 °F 77.0 °F 84% 29.86 in 1.6 mi East 5.8 mph - N/A   Haze
11:10 PM 80.6 °F 87.1 °F 77.0 °F 89% 29.86 in 1.6 mi ENE 4.6 mph - N/A   Haze
11:30 PM 80 °F - 77 °F 86% 29.87 in 1 mi Calm Calm - -   Haze
11:40 PM 80.6 °F 87.1 °F 77.0 °F 89% 29.86 in 1.6 mi ESE 3.5 mph - N/A   Haze